Location: Palomar Mountain Lodge
(33.3110°N, 116.8495°W)
Time: 18:38:17
(UTC-07:00)

OAO 1 - Pass Details

Date: 14 June 2018
Orbit: 773 x 784 km, 35.0° (Epoch: 21 August)

Event Time Altitude Azimuth Distance (km) Brightness Sun altitude
Rises 21:13:18 0° 282° (WNW) 3,235 8.9 -13.8°
Reaches altitude 10° 21:15:46 10° 282° (WNW) 2,307 8.0 -14.1°
Maximum altitude 21:21:14 88° 191° (S) 774 4.5 -15.0°
Enters shadow 21:24:59 21° 105° (ESE) 1,683 5.8 -15.6°
